Date String (YYYY-MM-DD hh:mm:ss) UTC,Instrument flags,Ambient pressure (hPa),Sample flow (lpm),Bypass flow (lpm),Sample temperature (°C),Ambient temperature (°C),ASC tube jacket temperature (°C),LED temperature (°C),Box temperature (°C),Sample RH (%),Span deviation,Mass concentration (μg/m³),Mass concentration (μg/m³),Mass concentration (μg/m³)
DateTimeUTC,F1_M11,P_M11,Q1_M11,Q2_M11,T1_M11,T2_M11,T3_M11,T4_M11,T5_M11,U1_M11,ZSPAN_M11,X0_M11,X2_M11,X1_M11
2022-08-08 13:00:00,,0832.8,4.98,0.00,30.4,28.7,00.0,39.0,31.9,34.3,0000.0,0011.91,0004.63,0003.87
2022-08-08 13:01:00,,0832.9,5.00,0.00,30.4,28.8,00.0,39.0,32.0,34.3,0000.0,0012.60,0004.63,0003.87
2022-08-08 13:02:00,,0833.0,5.00,0.00,30.4,28.9,00.0,39.0,32.0,34.5,0000.0,0013.10,0004.62,0003.87
2022-08-08 13:03:00,,0833.0,5.01,0.00,30.4,28.9,00.0,39.0,32.0,35.0,0000.0,0013.46,0004.60,0003.87
2022-08-08 13:04:00,,0833.1,4.99,0.00,30.5,29.0,00.0,39.0,32.1,34.6,0000.0,0013.65,0004.56,0003.86
2022-08-08 13:05:00,,0833.0,5.00,0.00,30.6,29.0,00.0,39.1,32.2,34.4,0000.0,0013.39,0004.53,0003.85
2022-08-08 13:06:00,,0833.1,5.00,0.00,30.7,29.0,00.0,39.1,32.1,34.2,0000.0,0012.34,0004.49,0003.85
2022-08-08 13:07:00,,0833.0,4.99,0.00,30.7,29.1,00.0,39.1,32.2,34.2,0000.0,0011.59,0004.45,0003.85
2022-08-08 13:08:00,,0833.0,5.00,0.00,30.7,29.1,00.0,39.1,32.2,33.9,0000.0,0011.46,0004.44,0003.86
2022-08-08 13:09:00,,0833.0,5.01,0.00,30.7,29.1,00.0,39.2,32.2,33.6,0000.0,0012.90,0004.47,0003.86
2022-08-08 13:10:00,,0833.0,5.01,0.00,30.8,29.1,00.0,39.2,32.2,33.6,0000.0,0012.76,0004.48,0003.87
2022-08-08 13:11:00,,0833.0,4.99,0.00,30.7,29.2,00.0,39.2,32.2,33.3,0000.0,0012.82,0004.47,0003.88
2022-08-08 13:12:00,,0833.0,5.00,0.00,30.8,29.2,00.0,39.3,32.2,33.3,0000.0,0012.33,0004.47,0003.89
2022-08-08 13:13:00,,0833.0,5.00,0.00,30.8,29.2,00.0,39.3,32.3,33.4,0000.0,0011.82,0004.44,0003.88
2022-08-08 13:14:00,,0833.0,5.00,0.00,30.8,29.3,00.0,39.3,32.3,33.6,0000.0,0011.07,0004.40,0003.87
2022-08-08 13:15:00,,0833.0,5.00,0.00,30.8,29.3,00.0,39.3,32.3,33.6,0000.0,0010.52,0004.37,0003.88
2022-08-08 13:16:00,,0833.0,4.99,0.00,30.8,29.3,00.0,39.3,32.3,33.5,0000.0,0010.33,0004.33,0003.88
2022-08-08 13:17:00,,0833.0,5.00,0.00,30.8,29.2,00.0,39.3,32.3,33.9,0000.0,0010.41,0004.33,0003.89
2022-08-08 13:18:00,,0833.0,5.00,0.00,30.7,28.5,00.0,39.3,32.2,33.7,0000.0,0010.19,0004.35,0003.90
2022-08-08 13:19:00,,0833.1,5.00,0.00,30.7,27.9,00.0,39.3,32.0,33.8,0000.0,0009.79,0004.37,0003.92
2022-08-08 13:20:00,,0833.1,5.01,0.00,30.6,27.7,00.0,39.2,31.9,34.0,0000.0,0008.62,0004.42,0003.94
2022-08-08 13:21:00,,0833.1,4.99,0.00,30.5,27.7,00.0,39.2,31.9,34.3,0000.0,0008.62,0004.49,0003.95
2022-08-08 13:22:00,,0833.1,5.01,0.00,30.4,27.8,00.0,39.2,31.8,34.1,0000.0,0008.66,0004.51,0003.96
2022-08-08 13:23:00,,0833.1,4.98,0.00,30.3,28.0,00.0,39.2,31.8,34.1,0000.0,0008.45,0004.51,0003.96
2022-08-08 13:24:00,,0833.1,5.01,0.00,30.3,28.1,00.0,39.1,31.8,34.2,0000.0,0008.39,0004.52,0003.96
2022-08-08 13:25:00,,0833.1,5.01,0.00,30.3,28.2,00.0,39.1,31.9,34.4,0000.0,0008.35,0004.53,0003.97
2022-08-08 13:26:00,,0833.1,5.00,0.00,30.3,28.3,00.0,39.1,31.9,34.6,0000.0,0008.67,0004.54,0003.98
2022-08-08 13:27:00,,0833.1,5.00,0.00,30.3,28.5,00.0,39.1,31.9,34.7,0000.0,0009.01,0004.60,0003.99
2022-08-08 13:28:00,,0833.1,4.99,0.00,30.2,28.6,00.0,39.1,31.9,34.7,0000.0,0009.04,0004.65,0004.01
2022-08-08 13:29:00,,0833.1,5.01,0.00,30.3,28.7,00.0,39.1,32.0,36.1,0000.0,0009.14,0004.68,0004.03
2022-08-08 13:30:00,,0833.1,5.01,0.00,30.5,28.7,00.0,39.1,32.1,37.3,0000.0,0009.26,0004.80,0004.15
2022-08-08 13:31:00,,0833.0,5.00,0.00,30.8,28.8,00.0,39.1,32.3,36.3,0000.0,0009.33,0004.91,0004.29
2022-08-08 13:32:00,,0833.1,4.99,0.00,31.2,28.9,00.0,39.1,32.5,35.7,0000.0,0009.22,0004.94,0004.38
2022-08-08 13:33:00,,0833.1,5.02,0.00,31.7,28.9,00.0,39.1,32.6,35.4,0000.0,0008.92,0005.01,0004.45
2022-08-08 13:34:00,,0833.1,4.98,0.00,32.1,29.0,00.0,39.2,32.7,34.1,0000.0,0009.01,0005.11,0004.56
2022-08-08 13:35:00,,0833.1,5.01,0.00,32.3,29.1,00.0,39.3,32.7,33.7,0000.0,0009.12,0005.19,0004.65
2022-08-08 13:36:00,,0833.2,5.01,0.00,32.5,29.1,00.0,39.5,32.7,34.1,0000.7,0009.25,0005.31,0004.75
2022-08-08 13:37:00,,0833.2,5.01,0.00,32.5,29.2,00.0,39.6,32.6,33.1,0001.2,0009.01,0005.41,0004.85
2022-08-08 13:38:00,,0833.1,5.00,0.00,32.5,29.2,00.0,39.7,32.7,33.3,0001.0,0008.76,0005.48,0004.97
2022-08-08 13:39:00,,0833.1,5.00,0.00,32.5,29.3,00.0,39.9,32.7,32.7,0001.2,0008.86,0005.57,0005.07
2022-08-08 13:40:00,,0833.1,5.00,0.00,32.5,29.3,00.0,40.0,32.7,33.4,0001.3,0008.83,0005.66,0005.19
2022-08-08 13:41:00,,0833.1,5.00,0.00,32.4,29.2,00.0,40.0,32.7,33.5,0001.3,0008.85,0005.68,0005.23
2022-08-08 13:42:00,,0833.1,4.99,0.00,32.4,28.6,00.0,40.1,32.5,33.7,0001.5,0008.79,0005.67,0005.22
2022-08-08 13:43:00,,0833.1,5.01,0.00,32.3,28.0,00.0,40.1,32.4,32.9,0001.4,0008.88,0005.72,0005.25
2022-08-08 13:44:00,,0833.1,4.99,0.00,32.2,27.8,00.0,40.1,32.3,33.6,0001.3,0009.02,0005.78,0005.29
2022-08-08 13:45:00,,0833.1,4.99,0.00,32.0,27.9,00.0,40.1,32.2,34.2,0001.3,0009.12,0005.84,0005.34
2022-08-08 13:46:00,,0833.0,5.02,0.00,31.9,28.0,00.0,40.1,32.2,34.8,0001.5,0009.28,0005.97,0005.43
2022-08-08 13:47:00,,0833.1,4.99,0.00,31.9,28.1,00.0,40.1,32.3,34.5,0001.7,0009.40,0006.07,0005.51
2022-08-08 13:48:00,,0833.1,5.00,0.00,31.9,28.3,00.0,40.1,32.3,34.2,0001.4,0009.62,0006.15,0005.56
2022-08-08 13:49:00,,0833.0,4.99,0.00,31.8,28.4,00.0,40.1,32.3,34.9,0001.1,0009.71,0006.22,0005.61
2022-08-08 13:50:00,,0833.1,5.01,0.00,31.9,28.5,00.0,40.1,32.4,35.5,0001.0,0009.70,0006.26,0005.66
2022-08-08 13:51:00,,0833.1,5.00,0.00,32.1,28.6,00.0,40.0,32.6,34.6,0001.2,0009.74,0006.30,0005.70
2022-08-08 13:52:00,,0833.1,5.00,0.00,32.2,28.8,00.0,40.1,32.6,34.4,0000.7,0009.82,0006.37,0005.74
2022-08-08 13:53:00,,0833.1,4.99,0.00,32.3,28.8,00.0,40.1,32.6,34.4,0000.5,0010.05,0006.49,0005.81
2022-08-08 13:54:00,,0833.0,4.99,0.00,32.3,28.9,00.0,40.1,32.6,34.3,0000.0,0010.11,0006.58,0005.91
2022-08-08 13:55:00,,0833.1,5.01,0.00,32.3,29.0,00.0,40.2,32.6,34.9,-000.2,0010.14,0006.68,0006.04
2022-08-08 13:56:00,,0833.1,5.00,0.00,32.3,29.1,00.0,40.2,32.7,34.6,-000.3,0010.14,0006.76,0006.14
2022-08-08 13:57:00,,0833.1,4.99,0.00,32.3,29.1,00.0,40.2,32.7,34.8,-000.6,0010.04,0006.75,0006.20
2022-08-08 13:58:00,,0833.1,5.00,0.00,32.3,29.2,00.0,40.3,32.7,35.1,-001.0,0010.21,0006.84,0006.27
2022-08-08 13:59:00,,0833.1,5.00,0.00,32.4,29.3,00.0,40.3,32.9,34.5,-000.4,0010.33,0006.91,0006.34
